Regional Weather Roundup
Issued by NWS

Home | Current Version | Previous Version | Graphics & Text | Print | Product List | Glossary Off
Versions: 1 2 3 4 5 6 7 8 9 10 11 12 13 14 15 16 17 18 19 20 21 22 23 24 25 26 27 28 29 30 31 32 33 34 35 36 37 38 39 40 41 42 43 44 45 46 47 48 49 50

000
ASUS43 KMKX 292000
RWRWI

WISCONSIN REGIONAL WEATHER ROUNDUP
NATIONAL WEATHER SERVICE MILWAUKEE/SULLIVAN WI
300 PM CDT TUE JUL 29 2014

NOTE: "FAIR" INDICATES FEW OR NO CLOUDS BELOW 12,000 FEET WITH NO
SIGNIFICANT WEATHER AND/OR OBSTRUCTIONS TO VISIBILITY.

WIZ001-002-006>008-014>016-023>028-292100-
NORTHWEST WISCONSIN

CITY           SKY/WX    TMP DP  RH WIND       PRES   REMARKS
SUPERIOR ARPT  SUNNY     78  57  48 NW13G20   30.01F
ASHLAND        TSTM      62  57  83 NE12G37   30.02R
HAYWARD        CLOUDY    72  56  57 VRB6      30.04F
SIREN          MOSUNNY   78  54  43 NW13      30.05F
RICE LAKE      MOSUNNY   74  57  54 W8        30.07F
LADYSMITH      PTSUNNY   74  58  57 W15       30.05F
EAU CLAIRE     PTSUNNY   71  56  58 W12G20    30.04F
MENOMONIE      PTCLDY    77  52  41 W15       30.05F
NEW RICHMOND   MOSUNNY   76  55  46 W13       30.07F
OSCEOLA        MOSUNNY   76  59  54 W7        30.10S
$$

WIZ003>005-009-010-017-018-292100-
NORTH CENTRAL WISCONSIN

CITY           SKY/WX    TMP DP  RH WIND       PRES   REMARKS
WOODRUFF       MOSUNNY   76  58  52 NW13      30.01F
RHINELANDER    LGT RAIN  70  56  61 VRB3      30.00F
EAGLE RIVER    HVY RAIN  61  53  77 NW12G21   30.01S VSB 3/4
LAND O LAKES   PTSUNNY   71  54  55 N12       30.02F
PHILLIPS       MOSUNNY   72  58  60 W8        30.01F
TOMAHAWK       MOSUNNY   73  55  52 NW7G16    30.01F
MEDFORD        MOSUNNY   72  56  58 W10       30.03F
MERRILL        CLOUDY    73  57  58 N8        30.01F
$$

WIZ029-030-035-036-043>047-292100-
CENTRAL WISCONSIN

CITY           SKY/WX    TMP DP  RH WIND       PRES   REMARKS
WAUSAU         MOSUNNY   76  53  44 NW16G23   29.99F
MOSINEE        NOT AVBL
MARSHFIELD     MOSUNNY   77  54  44 W9        30.02F
STEVENS POINT  MOSUNNY   74  53  48 W10       30.03S
WAUPACA        PTSUNNY   78  52  39 NW10      30.01S
WAUTOMA        NOT AVBL
WISC RAPIDS    PTSUNNY   78  53  41 W13       30.03F
CAMP DOUGLAS   NOT AVBL
$$

WIZ011>013-019>022-031-037>040-048>050-292100-
NORTHEAST WISCONSIN

CITY           SKY/WX    TMP DP  RH WIND       PRES   REMARKS
ANTIGO         PTSUNNY   71  56  58 W12       30.01F
STURGEON BAY   PTSUNNY   64  59  82 W6        29.98S
GREEN BAY      PTSUNNY   73  56  54 NE12      29.98S
MANITOWOC      NOT AVBL
APPLETON       PTSUNNY   75  52  43 NW12G23   29.99F
CLINTONVILLE   MOSUNNY   77  50  38 NW10G16   29.98F
OSHKOSH        SUNNY     77  54  44 N13       29.99F
$$

WIZ032>034-041-042-053>061-292100-
SOUTHWEST WISCONSIN

CITY           SKY/WX    TMP DP  RH WIND       PRES   REMARKS
LA CROSSE      SUNNY     82  55  39 NW12      30.04F HX  81
SPARTA         MOSUNNY   79  54  42 N8        30.05F
VIROQUA        MOCLDY    76  57  50 NW10      30.08S
BOSCOBEL       MOSUNNY   82  56  40 W9        30.06S HX  82
PRAIRIE DU CHI MOSUNNY   80  48  32 W8G22     30.06F
PLATTEVILLE    FAIR      77  54  44 NW13      30.08S
$$

WIZ056-057-062-063-064-067-068-292100-
SOUTH CENTRAL WISCONSIN

CITY           SKY/WX    TMP DP  RH WIND       PRES   REMARKS
BARABOO/DELLS  PTSUNNY   78  50  37 NW9G17    30.05S
LONE ROCK      NOT AVBL
WATERTOWN      PTSUNNY   76  55  48 NW12      30.02S
MADISON        PTSUNNY   78  54  43 NW10      30.03S
MIDDLETON      FAIR      79  49  34 NW9       30.05S
MONROE         MOSUNNY   77  54  44 NW15      30.05S
JANESVILLE     MOSUNNY   81  50  34 NW13      30.03F HX  80
$$

WIZ051-052-058>065-066-070>072-292100-
SOUTHEAST WISCONSIN

CITY           SKY/WX    TMP DP  RH WIND       PRES   REMARKS
MILWAUKEE      PTSUNNY   77  52  41 W12       30.00S
WAUKESHA       MOSUNNY   75  52  43 NW16      30.03R
MILWAUKEE/TIMM PTSUNNY   77  50  38 NW14      30.01S
RACINE         PTSUNNY   74  59  59 SE10      30.02S
BURLINGTON     MOSUNNY   75  53  46 W8        30.02S
KENOSHA        MOSUNNY   77  54  44 NW12G18   30.02S
FOND DU LAC    MOSUNNY   78  54  43 W15       30.00S
SHEBOYGAN      SUNNY     76  55  48 NW10      29.99S
WEST BEND      MOSUNNY   73  52  46 W12       30.01S
JUNEAU         MOSUNNY   75  47  36 W10G16    30.03S
$$

LSZ147-162-292100-
LAKE SUPERIOR

STATION/POSITION TIME  TEMP    WIND        PRES    WAVE
                       AIR SEA DIR/SP/G            HT/PER
                 (UTC) (F)     (DEG/KT/KT) (MB)    (FT/S)
W MID LAKE BUOY  1850   51 44  240/  8/  8 1016.0F   1
PORT WING        1900   69     240/ 13/ 15 1015.9F
SAXON HARBOR     1940           30/  9     1017.3S
$$

LMZ867-665-643>646-292100-
LAKE MICHIGAN

STATION/POSITION TIME  TEMP    WIND        PRES    WAVE
                       AIR SEA DIR/SP/G            HT/PER
                 (UTC) (F)     (DEG/KT/KT) (MB)    (FT/S)
N MID LAKE BUOY  1850   58 56  240/  6/  6 1014.2F   1
NORTHPORT PIER   1900   67     350/  3/  5 1014.9S
SISTER BAY       1910   73        CALM       N/A
KEWAUNEE LAKESHO 1900   65      80/  2/  8 1015.9S
SHEBOYGAN LAKESH 1900   70      20/  3/  5 1015.6F
PORT WASHINGTON  1900   77     290/  8/ 11 1015.9F
ATWATER BUOY     1900   68      40/  2     1017.0F
MILWAUKEE LAKESH 1900   74     330/  5/  9   N/A
S MID LAKE BUOY  1850   62 62  310/  2/  4 1016.6F   1
KENOSHA   LAKESH 1900   68     110/  6/  8 1015.9S
$$

TC  - TEMPERATURE IN CELSIUS
VSB - VISIBILITY IN STATUTE MILES
WCI - WIND CHILL INDEX
HX  - HEAT INDEX



USA.gov is the U.S. government's official web portal to all federal, state and local government web resources and services.